Weather in Takhta

Russia / Khabarovsk Krai     53°07′44″N   139°50′37″E
temp.,
°C
wind,
m/s
gust,
m/s
humid.,
%
clouds,
%
prec.,
mm/h
press.,
hPa
HPBL,
m
2 march, tue
tue201:00−24wsw228699 0.0 102123
04:00−26wsw227998 0.0 102222
07:00−27sw227585 0.0 102319
10:00−22ssw239293 0.0 1024232
13:00−18sw2268100 0.1 1023914
16:00−18sw346397 0.1 10231179
19:00−21wnw2382100 0.0 102322
22:00−26w117975 0.0 102420
3 march, wed
wed301:00−25ssw2290100 0.0 102221
04:00−29sw228778 0.0 102320
07:00−30ssw33840 0.0 102222
10:00−25sw36780 0.0 1022254
13:00−19sw46690 0.0 1020499
16:00−16sw35660 0.0 1019658
19:00−20s337634 0.0 101820
22:00−21s228665 0.0 101620
4 march, thu
thu401:00−22sse119185 0.0 101420
04:00−22sw009393 0.0 101320
07:00−24ssw119772 0.0 101420
10:00−19sw118766 0.0 1015132
13:00−16ene1177100 0.0 1014390
16:00−14e128499 0.0 1014243
19:00−16n3390100 0.0 101541
22:00−19nne4597100 0.4 1016196
5 march, fri
fri501:00−20nne4798100 0.9 1016290
04:00−21nne3498100 1.4 1016119
07:00−22n2299100 0.3 101751
10:00−20nnw4666100 0.4 1019674
13:00−21nw796490 0.0 1019853
16:00−22nw696681 0.0 10191067
19:00−27w347424 0.0 102023
22:00−29w457812 0.0 102146
6 march, sat
sat601:00−30w44780 0.0 102134
04:00−30w45780 0.0 102152
07:00−30w458210 0.0 102259
10:00−22nw713676 0.0 10221172
13:00−19nw8126428 0.0 10221510
16:00−19nw7136464 0.0 10221516
19:00−25w337646 0.0 102323
22:00−27sw228324 0.0 102420